Orbital Elements at Epoch 2459200.5 (2020-Dec-17.0) TDB
Reference: JPL 14 (heliocentric ecliptic J2000)
Element | Value | Uncertainty (1-sigma) | Units |
e | .05287456247641628 | 4.807e-08 | |
a | 2.324270832408803 | 1.1342e-08 | au |
q | 2.201376029068491 | 1.1158e-07 | au |
i | 6.993206686849154 | 5.3924e-06 | deg |
node | 180.1165103583078 | 2.9449e-05 | deg |
peri | 344.9689127251787 | 4.7275e-05 | deg |
M | 207.0899238647856 | 3.8527e-05 | deg |
tp | 2459750.246064439273 (2022-Jun-19.74606444) | 0.00014007 | TDB |
period | 1294.28084924327 3.54 | 9.4735e-06 2.594e-08 | d yr |
n | .2781467408796799 | 2.0359e-09 | deg/d |
Q | 2.447165635749114 | 1.1941e-08 | au |
|
| | Orbit Determination Parameters
Additional Information
|